Elkins, WV

10:40 PM EDT on September 20, 2017 (GMT -0400)
Elkins-Randolph County

Weather History for KEKN - July, 2013

Change the Weather History Date:

Saturday, July 20, 2013

  Actual Average Record
Temperature  
Mean Temperature 75 °F 70 °F  
Max Temperature 86 °F 81 °F 94 °F (1930)
Min Temperature 63 °F 59 °F 43 °F (1929)
Degree Days  
Heating Degree Days 0 0  
Month to date heating degree days 0 8  
Since 1 June heating degree days 12 63  
Since 1 July heating degree days 0 8  
Cooling Degree Days 10 5  
Month to date cooling degree days 178 102  
Year to date cooling degree days 300 217  
Since 1 June cooling degree days 275 194  
Growing Degree Days 26 (Base 50)    
Moisture  
Dew Point 66 °F    
Average Humidity 72    
Maximum Humidity 93    
Minimum Humidity 51    
Precipitation  
Precipitation 0.35 in 0.16 in 1.22 in (1963)
Month to date precipitation 2.34 3.55  
Year to date precipitation 22.90 27.16  
Snow  
Snow 0.00 in - - ()
Month to date snowfall 0.0  
Since 1 September snowfall 77.5  
Snow Depth 0.00 in    
Sea Level Pressure  
Sea Level Pressure 29.99 in    
Wind  
Wind Speed 4 mph (SW)    
Max Wind Speed 30 mph    
Max Gust Speed 39 mph    
Visibility 10 miles    
Events Rain    
T = Trace of Precipitation, MM = Missing Value Source: NWS Daily Summary

Daily Weather History Graph

Daily Weather History Graph

Search for Another Location

Airport or City:

Trip Planner

Search our weather history database for the weather conditions in past years. The results will help you decide how hot, cold, wet, or windy it might be!

Date:

Astronomy

Jul. 20, 2013 Rise Set
Actual Time 6:10 AM EDT 8:40 PM EDT
Civil Twilight 5:39 AM EDT 9:11 PM EDT
Nautical Twilight 5:01 AM EDT 9:49 PM EDT
Astronomical Twilight 4:19 AM EDT 10:31 PM EDT
Moon 6:42 PM EDT (7/20) 3:48 AM EDT (7/20)
Length of Visible Light 15h 31m
Length of Day
14h 30m
Waxing Gibbous, 93% of the Moon is Illuminated
Jul 20
Waxing Gibbous
Jul 22
Full
Jul 29
Last Quarter
Aug 6
New
Aug 14
First Quarter

Hourly Weather History & Observations

Time (EDT) Temp. Heat Index Dew Point Humidity Pressure Visibility Wind Dir Wind Speed Gust Speed Precip Events Conditions
12:51 AM 68.0 °F - 66.0 °F 93% 29.99 in 10.0 mi Calm Calm - N/A   Clear
1:51 AM 69.1 °F - 66.0 °F 90% 30.00 in 10.0 mi Calm Calm - N/A   Clear
2:51 AM 69.1 °F - 66.0 °F 90% 29.99 in 10.0 mi Calm Calm - 0.00 in   Scattered Clouds
3:07 AM 69.8 °F - 64.4 °F 83% 30.03 in 10.0 mi SSE 4.6 mph - N/A   Mostly Cloudy
3:51 AM 70.0 °F - 64.9 °F 84% 29.98 in 10.0 mi SSE 5.8 mph - 0.01 in Rain Light Rain
4:06 AM 69.8 °F - 66.2 °F 88% 30.01 in 10.0 mi Calm Calm - 0.01 in   Overcast
4:31 AM 69.8 °F - 64.4 °F 83% 30.00 in 10.0 mi SE 4.6 mph - 0.01 in   Scattered Clouds
4:51 AM 69.1 °F - 64.9 °F 87% 29.98 in 10.0 mi Calm Calm - 0.01 in   Mostly Cloudy
5:16 AM 69.8 °F - 64.4 °F 83% 30.01 in 10.0 mi SE 4.6 mph - N/A   Overcast
5:51 AM 70.0 °F - 66.0 °F 87% 29.98 in 10.0 mi Calm Calm - N/A   Overcast
6:51 AM 69.1 °F - 66.9 °F 93% 29.99 in 10.0 mi SSE 8.1 mph - 0.20 in Rain Light Rain
7:51 AM 71.1 °F - 68.0 °F 90% 30.01 in 10.0 mi Calm Calm - 0.00 in   Overcast
8:51 AM 73.9 °F - 69.1 °F 85% 30.01 in 10.0 mi Calm Calm - N/A   Mostly Cloudy
9:23 AM 73.4 °F - 68.0 °F 83% 30.05 in 10.0 mi West 5.8 mph 17.3 mph N/A   Scattered Clouds
9:51 AM 75.9 °F - 68.0 °F 76% 30.01 in 10.0 mi Variable 3.5 mph - N/A   Mostly Cloudy
10:26 AM 75.2 °F - 69.8 °F 83% 30.04 in 10.0 mi South 5.8 mph - N/A   Mostly Cloudy
10:51 AM 77.0 °F - 69.1 °F 76% 30.00 in 10.0 mi Variable 3.5 mph - N/A   Mostly Cloudy
11:15 AM 78.8 °F - 68.0 °F 69% 30.03 in 10.0 mi WSW 11.5 mph 17.3 mph N/A   Mostly Cloudy
11:51 AM 82.0 °F 85.5 °F 69.1 °F 65% 29.98 in 10.0 mi WSW 12.7 mph 18.4 mph N/A   Partly Cloudy
12:51 PM 82.9 °F 85.8 °F 68.0 °F 60% 29.97 in 10.0 mi West 8.1 mph - N/A   Partly Cloudy
1:51 PM 82.0 °F 84.1 °F 66.0 °F 58% 29.96 in 10.0 mi WSW 10.4 mph - N/A   Mostly Cloudy
2:51 PM 84.9 °F 87.1 °F 66.0 °F 53% 29.95 in 10.0 mi WSW 11.5 mph 17.3 mph 0.00 in   Partly Cloudy
3:51 PM 84.0 °F 87.0 °F 68.0 °F 58% 29.93 in 10.0 mi SW 8.1 mph - 0.00 in   Partly Cloudy
4:51 PM 86.0 °F 88.2 °F 66.0 °F 51% 29.91 in 10.0 mi WNW 10.4 mph - N/A   Scattered Clouds
5:51 PM 68.0 °F - 64.0 °F 87% 29.97 in 10.0 mi Calm Calm - 0.13 in Rain Light Rain
6:51 PM 72.0 °F - 64.9 °F 78% 29.95 in 10.0 mi SW 5.8 mph - 0.00 in   Clear
7:51 PM 71.1 °F - 66.0 °F 84% 29.96 in 10.0 mi Calm Calm - N/A   Clear
8:51 PM 70.0 °F - 66.0 °F 87% 29.96 in 10.0 mi Calm Calm - N/A   Clear
9:51 PM 68.0 °F - 64.9 °F 90% 29.98 in 10.0 mi Calm Calm - N/A   Clear
10:51 PM 66.0 °F - 64.0 °F 93% 29.98 in 10.0 mi Calm Calm - N/A   Clear
11:51 PM 64.9 °F - 63.0 °F 93% 29.98 in 10.0 mi Calm Calm - N/A   Clear